Temperature
21 20 20 20 25 28 28 28 28 28 27 26 26 26 26 25 25 23 20 20 20 19 19 19 19 19 19 19 19 19 19 19 19 19 19 19 19 19 19 19 19 19 19 19 19 18 18 18 18
20 20 21 24 28 28 27 28 28 27 27 26 26 26 25 24 23 21 20 20 19 19 19 19 19 19 19 19 19 19 19 19 19 19 19 19 19 19 19 19 19 19 19 19 19 18 18 18 18
20 20 23 28 29 28 27 28 28 27 26 26 26 25 25 23 22 21 20 20 20 19 19 19 19 19 19 19 19 19 19 19 19 19 19 19 19 19 19 19 19 19 19 18 18 18 18 18 18
21 23 26 29 28 29 28 28 28 28 27 26 26 25 23 21 21 20 20 20 20 19 19 19 19 19 19 19 19 19 19 19 19 19 19 19 19 19 19 19 19 19 18 18 18 18 18 18 18
22 26 29 29 29 29 29 28 28 28 28 26 26 25 23 21 21 20 20 20 20 20 19 19 19 19 19 19 19 19 19 19 19 19 19 19 19 19 19 19 19 19 18 18 18 18 18 18 18
26 29 29 29 29 29 29 28 28 28 27 26 26 25 23 21 21 20 20 20 20 19 19 19 19 19 19 19 19 19 19 19 19 19 19 19 19 19 19 19 19 19 19 18 18 18 18 18 18
27 30 29 29 29 29 29 28 28 28 28 27 26 26 23 21 21 20 20 20 20 20 19 19 19 19 19 19 19 19 19 19 19 19 19 19 19 19 19 19 19 19 18 18 18 18 18 18 18
27 30 30 30 29 29 29 28 28 28 27 26 25 26 24 21 21 20 20 20 20 19 19 19 19 19 19 19 19 19 19 19 19 19 19 19 19 19 19 19 19 19 18 18 18 18 18 18 18
27 30 30 30 29 29 29 29 27 27 26 25 25 25 23 21 21 21 21 20 20 19 19 19 19 19 19 19 19 19 19 19 19 19 19 19 18 18 18 18 19 18 18 18 18 18 18 18 18
29 30 30 30 30 30 29 29 28 27 27 26 25 23 22 22 21 22 21 21 20 20 19 19 19 19 19 19 19 19 18 18 19 19 18 18 18 18 18 19 19 18 18 18 18 18 18 18 18
30 30 30 30 29 29 29 29 28 28 28 27 25 24 23 22 22 22 22 21 21 20 20 19 19 19 19 19 19 19 19 19 19 19 19 18 18 18 18 18 18 18 18 18 18 18 18 18 18
30 30 30 30 29 29 29 29 29 28 28 26 25 24 23 23 23 22 22 21 21 20 20 19 19 19 19 19 19 19 19 19 19 19 19 18 18 18 18 18 18 18 18 18 18 18 18 18 17
31 30 30 29 29 29 29 29 29 28 26 25 25 24 24 23 23 22 22 21 21 20 20 19 19 19 19 19 19 19 19 19 19 19 19 19 18 18 18 18 18 18 18 18 18 18 18 18 17
30 30 30 30 30 29 29 29 29 27 26 25 25 24 24 23 23 22 22 21 21 20 20 20 19 19 19 19 19 19 19 19 19 19 19 19 19 18 18 18 18 18 18 18 18 18 18 18 18
30 31 31 31 30 30 30 29 29 27 26 26 25 25 24 24 23 22 22 21 21 20 20 20 20 19 19 19 19 19 19 19 19 19 19 19 19 19 18 18 18 18 18 18 18 18 18 18 18
31 31 31 31 31 30 30 30 29 27 27 27 26 25 24 23 23 22 22 21 21 20 20 20 20 20 20 19 19 19 19 19 19 19 19 19 19 18 18 18 18 18 18 18 18 18 18 18 18
31 31 31 31 31 31 31 30 29 27 28 27 26 26 25 24 23 22 22 21 21 20 20 20 20 20 19 19 19 19 19 19 19 19 19 19 18 18 18 18 18 18 18 18 18 18 18 18 18
31 31 31 31 31 31 31 30 30 28 28 28 27 26 25 24 23 23 22 21 21 20 20 20 20 20 20 19 19 19 19 19 19 18 18 19 18 18 18 18 18 18 18 18 18 18 18 18 18
32 31 31 31 31 31 30 30 30 29 28 28 27 26 25 25 24 23 22 21 21 20 20 20 20 20 20 19 19 19 19 19 18 18 18 18 18 18 18 18 18 18 18 18 18 17 17 18 18
31 31 31 31 31 31 30 30 30 30 29 28 27 27 26 25 24 23 22 21 21 21 20 20 20 20 20 20 19 19 19 19 18 18 18 18 18 18 18 18 18 18 18 18 17 17 17 18 18
31 31 31 31 30 31 30 30 30 30 29 28 27 27 26 25 25 23 22 22 21 21 21 20 20 20 20 20 19 19 19 19 19 18 18 18 18 18 18 18 18 18 17 18 17 17 17 18 18
31 31 31 31 30 31 30 30 30 30 30 29 28 27 27 25 25 24 22 22 21 21 21 21 20 20 20 20 19 19 19 19 19 18 18 18 18 18 18 18 18 18 17 18 17 17 17 17 17
31 31 31 31 31 31 31 30 31 31 30 30 29 28 27 26 25 24 23 22 21 21 21 21 20 20 20 20 19 19 19 19 18 18 18 18 18 18 18 18 18 18 17 17 17 17 17 17 17
31 31 30 31 31 30 31 30 30 31 30 30 29 28 26 26 25 24 23 22 21 21 21 20 20 20 20 20 19 19 19 19 18 18 18 18 18 18 18 18 18 17 17 17 17 17 17 17 17
31 30 30 29 30 30 31 30 30 31 30 30 29 28 26 25 25 24 23 22 21 21 21 20 20 20 20 20 19 19 19 19 18 18 18 18 18 18 18 18 17 17 17 17 17 17 17 17 17
31 31 30 29 30 31 30 30 31 30 29 29 28 28 26 26 25 24 23 22 21 21 21 20 20 20 20 20 19 19 19 18 18 18 18 18 18 18 18 18 17 17 17 17 17 17 17 17 17
31 31 32 31 31 30 31 30 30 30 29 29 28 28 27 26 25 24 23 22 22 21 21 21 20 20 20 19 19 19 19 18 18 18 18 18 18 18 18 17 17 17 17 17 17 17 17 17 17
31 31 31 31 29 29 30 30 30 29 29 29 29 28 27 26 25 24 24 23 22 22 21 21 20 20 20 19 19 19 19 19 18 18 18 18 18 18 17 17 17 17 17 17 17 17 17 17 17
30 30 30 31 31 30 29 30 31 30 29 29 28 27 26 26 25 24 24 23 22 21 21 20 20 20 19 19 19 19 18 18 18 18 18 18 18 18 17 17 17 17 17 17 17 16 16 16 16
31 31 30 30 29 30 30 30 30 30 29 28 27 26 25 25 25 24 23 22 22 21 21 20 20 20 19 19 19 18 18 18 18 18 18 18 18 17 17 17 17 16 16 16 16 16 16 16 16
Wind_Speed
10 8 5 4 3 3 9 8 7 7 6 7 7 6 6 8 6 5 4 4 5 6 8 10 9 9 9 9 9 10 11 12 11 12 11 10 10 10 10 11 11 11 11 11 10 10 10 11 11
7 5 4 4 1 7 9 8 9 9 6 5 6 6 7 8 7 6 4 5 5 7 8 9 10 9 9 9 10 11 11 12 11 11 11 10 9 9 9 10 10 10 10 10 10 10 9 10 10
5 5 3 1 6 9 9 8 8 8 6 4 4 6 6 6 6 4 5 5 6 7 9 11 9 9 10 10 10 11 12 12 11 10 9 9 8 8 9 9 9 9 9 9 9 9 9 10 10
4 4 2 3 10 11 8 7 6 6 6 6 5 6 6 6 4 6 6 6 7 7 9 12 9 10 10 10 10 10 11 10 10 9 9 8 8 8 8 8 8 8 8 9 9 8 9 9 10
4 2 2 8 11 9 7 6 5 5 6 6 6 7 7 6 7 7 7 6 7 8 9 12 10 9 9 9 9 9 9 9 9 9 8 8 8 7 6 7 7 8 8 9 9 8 8 9 9
3 1 4 9 10 8 7 5 5 6 7 6 6 7 6 6 7 7 7 6 7 8 9 11 10 9 8 8 8 8 8 9 9 9 8 7 6 6 6 7 7 7 8 8 8 8 8 9 9
2 3 6 8 8 8 7 5 6 5 6 5 4 5 6 7 7 6 7 7 7 8 8 8 9 9 8 8 8 7 8 8 8 8 7 7 7 7 7 7 7 7 7 7 7 7 8 8 9
3 1 5 7 8 8 6 5 5 5 6 5 3 4 6 8 7 7 7 7 6 6 6 6 7 7 7 8 8 7 7 7 7 7 6 6 8 8 8 8 8 7 7 8 8 7 8 8 8
2 1 6 7 7 6 4 5 5 5 6 6 5 7 8 10 9 8 7 7 6 6 5 5 5 5 5 6 8 6 7 6 6 7 6 5 5 6 6 8 8 8 8 8 8 7 7 8 9
1 4 7 6 5 4 4 3 3 4 6 6 7 8 9 9 8 7 7 7 6 6 6 5 4 5 4 4 5 4 4 5 4 4 5 4 4 4 5 8 7 7 7 7 7 7 8 7 6
1 3 4 4 4 3 3 3 3 3 5 5 6 9 9 8 7 6 6 6 6 6 6 5 4 4 4 3 3 2 2 3 4 4 4 4 3 3 3 4 6 5 5 4 6 5 3 2 2
1 2 2 2 2 1 2 3 3 4 5 6 7 9 9 8 7 6 6 6 6 6 6 5 5 4 3 2 2 2 2 2 2 4 3 3 2 2 2 2 2 3 3 2 2 2 2 2 2
2 1 2 1 1 2 2 2 3 5 6 7 8 9 8 7 6 6 6 6 5 5 5 5 5 4 3 2 0 2 2 1 3 3 3 2 2 2 2 2 2 2 2 2 2 1 1 1 2
1 2 2 2 3 3 3 2 3 5 7 8 8 8 8 7 6 6 6 6 6 5 5 5 4 5 4 3 2 1 1 2 2 3 3 2 2 2 2 2 2 2 2 1 1 2 2 2 1
3 3 3 3 2 2 3 3 3 6 8 8 8 7 7 6 6 6 6 6 6 6 5 5 5 4 4 3 3 2 1 2 2 2 3 2 2 2 2 2 2 2 2 1 1 1 1 2 2
5 4 3 3 2 2 4 3 6 7 8 8 8 8 7 6 6 6 6 6 6 6 5 4 4 5 4 3 2 2 2 2 2 2 3 2 2 2 1 1 1 1 1 1 1 1 1 1 1
5 3 1 3 2 1 2 2 5 6 7 7 8 8 7 7 7 6 6 6 6 6 6 5 4 4 4 4 3 3 2 2 2 2 2 2 2 2 1 1 1 1 1 0 1 1 1 1 1
2 2 1 1 2 2 2 0 3 6 7 7 8 8 7 7 7 7 6 6 6 6 6 5 5 4 5 5 4 3 2 2 2 2 2 1 1 1 1 2 1 1 0 0 1 0 1 1 2
4 4 2 1 0 2 2 2 2 5 7 7 8 8 8 7 7 7 7 7 7 7 7 6 5 5 4 4 4 3 3 2 2 2 2 1 1 1 1 0 1 1 0 1 1 1 2 2 1
6 5 3 1 1 2 2 3 2 5 7 7 7 8 8 8 8 8 8 7 8 8 7 7 6 6 5 4 3 2 2 2 2 1 2 1 1 1 2 1 1 1 1 2 1 2 2 1 1
7 6 4 3 3 5 5 4 5 5 6 6 7 7 7 8 8 9 8 8 8 8 8 6 6 6 5 5 4 3 3 2 2 2 2 1 1 1 1 1 1 1 2 1 2 2 3 2 2
7 5 5 5 6 4 5 4 3 5 6 7 7 7 7 8 8 9 9 9 8 8 7 7 6 6 5 5 4 4 3 2 1 1 1 1 1 1 1 1 1 2 2 2 3 2 2 3 3
5 3 5 7 7 6 6 6 2 5 5 6 7 7 7 7 8 9 9 9 8 8 7 7 6 6 5 5 5 4 3 2 2 1 1 1 1 1 1 1 2 2 2 2 3 2 3 3 3
5 5 6 8 8 8 6 7 3 2 3 4 6 7 7 7 8 8 9 8 8 8 7 7 7 6 6 6 5 4 4 3 2 1 1 2 1 1 1 2 2 2 2 2 3 3 3 3 3
9 8 6 7 8 6 3 6 3 0 1 2 4 6 7 8 8 9 9 9 9 8 8 8 7 6 6 6 5 5 4 4 3 3 2 2 1 1 1 1 2 2 2 2 3 3 3 3 3
11 11 8 7 7 4 5 5 1 1 1 2 3 5 7 8 9 9 9 9 9 9 8 8 8 7 6 6 5 4 4 4 3 2 2 2 1 1 1 2 2 2 2 3 3 3 3 3 4
8 10 9 9 8 7 5 4 3 3 3 3 4 6 7 8 8 9 9 9 8 9 8 8 8 7 6 6 5 4 4 3 2 2 3 2 2 1 1 2 2 2 2 2 3 2 3 3 4
7 7 7 9 8 8 6 6 3 3 3 4 5 5 6 7 8 8 8 9 8 8 8 8 8 7 6 6 5 4 4 3 3 3 2 2 2 1 2 2 2 2 2 2 3 3 2 3 3
8 8 8 8 8 8 7 3 2 3 2 3 4 5 5 6 7 8 8 8 8 8 8 8 8 8 6 5 4 4 3 3 3 3 2 2 2 2 2 2 2 2 2 2 3 3 2 3 3
7 9 10 9 8 8 9 3 4 3 2 3 4 4 4 5 6 7 8 8 8 8 8 8 8 8 7 6 5 4 3 3 3 3 3 3 3 3 3 3 3 3 3 2 3 3 3 3 4
Wind_Direction
184 186 208 233 226 86 61 55 51 55 56 54 51 50 50 38 31 59 67 73 81 100 106 110 101 101 98 93 91 105 117 126 127 127 129 134 136 138 141 145 147 148 148 147 148 149 150 147 146
176 185 227 241 33 71 64 57 56 54 67 78 67 63 63 61 57 82 91 88 96 100 108 106 103 103 100 96 94 107 114 119 119 120 123 128 131 135 138 142 145 146 149 151 153 154 153 148 148
184 223 265 317 54 56 59 57 64 72 73 67 69 56 54 59 66 80 88 109 109 102 106 103 107 103 101 97 93 98 107 111 113 115 118 122 127 131 135 142 145 150 154 155 155 158 158 155 152
212 228 237 71 69 60 60 63 70 80 72 60 74 78 76 56 68 88 106 116 113 110 108 106 109 105 103 101 99 99 103 106 109 112 114 114 116 125 137 144 150 154 155 156 160 162 164 161 157
242 264 97 80 70 64 59 58 59 62 66 69 71 86 85 77 89 103 115 115 113 111 109 111 110 107 105 103 103 102 103 105 106 109 110 113 117 123 132 145 151 156 156 158 162 165 164 159 159
253 269 68 69 70 68 66 59 59 66 77 78 79 86 87 103 106 110 114 112 109 110 111 115 119 112 109 108 106 103 104 107 108 108 107 108 112 117 121 134 148 155 157 162 164 167 165 166 160
324 41 64 70 73 73 61 52 47 60 69 68 74 87 109 119 117 120 117 111 108 109 114 118 122 123 124 116 109 106 105 108 110 109 106 103 106 112 114 120 134 146 150 148 152 162 161 152 154
305 13 80 72 66 68 67 62 52 49 67 76 71 88 116 127 132 134 126 118 112 112 114 115 115 115 123 122 114 109 108 110 117 115 111 113 124 126 120 119 115 123 132 137 137 143 151 151 153
270 58 67 62 57 71 78 74 67 71 88 84 75 76 104 128 139 139 132 125 123 121 122 117 118 119 120 115 116 123 127 129 143 136 135 145 131 126 127 104 108 112 120 128 132 140 149 161 162
277 50 54 49 53 69 72 69 94 107 101 102 104 104 119 136 143 143 135 132 132 130 131 127 127 122 120 112 117 120 124 126 128 119 126 125 115 110 108 117 120 118 124 136 143 160 170 186 167
41 51 54 62 68 70 78 87 108 108 90 107 126 135 140 141 148 146 139 134 132 136 135 137 131 124 121 121 116 107 108 125 137 125 124 120 124 118 111 121 133 132 139 141 147 167 162 137 130
117 56 56 74 86 92 91 98 95 78 83 102 126 138 144 147 147 148 143 138 138 141 142 142 138 132 126 115 114 131 127 132 132 130 131 121 112 106 97 104 108 127 133 129 142 143 130 135 180
150 93 69 94 118 115 121 113 91 94 105 118 130 141 145 146 145 142 140 140 140 141 143 144 141 135 135 131 132 114 131 132 127 123 122 123 131 118 111 107 113 118 123 140 142 143 154 183 199
131 144 148 131 123 145 142 122 126 118 128 134 142 148 149 148 145 141 148 153 150 150 149 147 150 146 151 152 152 150 141 134 122 119 113 124 120 108 108 115 109 103 110 105 146 152 174 195 194
179 173 161 143 155 150 175 142 133 136 146 149 152 153 152 153 153 156 157 161 156 153 153 156 160 155 161 171 179 171 158 139 124 117 124 128 121 118 134 114 112 96 110 138 169 171 187 198 186
205 208 169 133 140 165 236 101 122 151 160 159 161 161 163 163 165 162 162 164 158 157 159 166 167 159 164 170 181 170 161 143 135 133 132 129 125 145 158 123 119 125 149 164 175 212 215 206 223
212 228 166 138 145 182 250 86 132 168 176 170 172 170 170 168 173 170 171 169 165 165 165 168 171 169 170 170 170 168 152 142 137 131 119 119 133 142 165 135 103 161 159 260 272 104 273 249 260
229 258 240 205 151 246 251 352 150 179 190 184 181 179 179 178 177 173 175 171 168 168 169 171 173 171 170 166 161 168 154 151 145 124 111 117 130 139 160 152 147 197 192 215 20 327 293 284 279
274 271 272 271 171 256 262 273 208 186 199 193 190 188 185 185 174 170 174 174 171 170 171 173 174 173 177 170 173 173 164 159 145 141 123 130 142 154 203 211 153 233 246 267 251 268 237 247 275
245 251 251 204 160 259 274 265 223 198 204 204 197 194 192 185 175 173 178 177 176 174 175 176 179 179 183 171 173 171 169 166 152 144 125 150 171 213 194 201 249 243 235 241 258 262 282 278 261
238 254 267 262 234 227 258 239 201 192 197 202 208 206 200 192 185 179 181 180 178 179 181 181 181 181 182 179 177 170 169 180 168 167 172 175 185 206 239 229 268 281 268 265 260 250 250 271 274
241 245 255 244 245 240 246 270 187 193 198 206 207 206 204 193 188 181 179 180 182 183 179 178 179 180 178 184 188 193 190 192 182 184 173 186 201 218 229 235 238 262 276 280 266 251 263 264 277
252 234 236 243 251 257 234 262 199 182 207 210 205 202 200 188 182 178 177 177 179 179 176 173 174 179 181 185 184 199 204 197 187 178 171 218 195 217 237 233 237 238 254 271 282 287 272 266 275
197 203 217 232 246 250 242 255 246 197 223 213 197 193 191 181 176 172 170 167 171 172 175 174 174 180 183 186 189 198 200 201 200 207 210 226 210 212 215 232 249 251 259 263 262 266 252 269 284
214 229 233 233 232 242 199 248 255 24 197 223 201 184 180 175 173 170 170 170 173 175 178 178 176 179 183 187 194 199 203 204 208 225 215 247 242 234 218 259 261 269 262 264 266 257 272 259 260
223 240 251 261 260 245 195 237 220 110 191 209 199 182 176 178 175 173 173 174 176 177 178 179 179 179 180 185 191 197 202 213 208 216 241 226 252 250 222 243 255 271 275 270 261 259 259 264 265
225 238 259 267 268 266 242 228 218 194 201 193 183 174 175 177 176 174 173 176 177 177 178 180 178 177 179 181 182 187 193 209 209 205 219 214 219 232 216 237 252 268 267 270 269 269 272 276 269
252 241 240 251 257 262 248 239 237 198 203 189 178 170 169 171 175 172 171 174 176 175 175 176 176 176 175 176 185 178 183 196 207 217 212 227 227 239 233 242 256 264 261 261 264 261 269 273 276
208 222 239 252 262 268 266 256 118 179 178 171 159 155 166 168 166 166 165 166 166 165 165 169 171 171 171 172 174 174 176 187 198 198 209 215 223 220 227 240 252 260 267 265 263 269 267 275 287
240 237 234 246 249 256 270 260 116 142 143 139 139 137 142 152 156 158 158 158 162 164 165 168 170 171 171 168 171 172 170 181 200 201 210 215 222 227 227 234 242 252 261 259 257 271 284 281 287
Height
1504 1504 1505 1507 1502 1497 1499 1497 1495 1495 1497 1501 1502 1501 1502 1503 1506 1514 1514 1511 1511 1511 1509 1508 1508 1508 1507 1505 1502 1501 1503 1507 1511 1514 1517 1519 1520 1522 1523 1524 1526 1527 1528 1530 1531 1533 1534 1535 1536
1506 1506 1507 1504 1496 1502 1503 1497 1497 1499 1502 1504 1504 1504 1504 1507 1511 1513 1513 1513 1513 1512 1512 1511 1510 1510 1510 1508 1506 1504 1505 1510 1513 1516 1518 1520 1521 1523 1524 1525 1527 1528 1529 1531 1532 1533 1534 1536 1537
1507 1506 1507 1498 1496 1501 1504 1498 1499 1502 1504 1504 1504 1506 1508 1511 1513 1514 1514 1514 1514 1514 1514 1512 1512 1513 1512 1512 1511 1510 1511 1514 1516 1519 1520 1521 1522 1523 1525 1526 1527 1528 1530 1531 1532 1534 1535 1536 1537
1508 1508 1504 1497 1500 1498 1499 1499 1501 1502 1504 1505 1505 1508 1512 1515 1515 1515 1515 1516 1516 1516 1516 1515 1515 1515 1515 1516 1516 1515 1516 1518 1520 1521 1522 1523 1523 1524 1525 1526 1527 1529 1530 1531 1532 1534 1535 1536 1537
1509 1506 1498 1498 1499 1499 1499 1501 1502 1501 1503 1506 1507 1509 1514 1517 1516 1517 1517 1517 1518 1518 1518 1517 1517 1518 1519 1519 1519 1520 1520 1521 1522 1523 1524 1524 1524 1524 1525 1526 1527 1529 1530 1531 1532 1534 1535 1536 1536
1508 1501 1499 1503 1502 1500 1501 1503 1503 1503 1505 1508 1508 1510 1516 1518 1518 1518 1519 1519 1520 1520 1520 1520 1520 1520 1521 1522 1522 1523 1523 1524 1524 1525 1525 1525 1524 1525 1525 1526 1527 1529 1530 1531 1533 1534 1534 1535 1536
1507 1499 1501 1501 1502 1501 1503 1504 1504 1504 1506 1509 1510 1511 1516 1519 1519 1519 1520 1520 1521 1522 1522 1522 1523 1523 1523 1524 1524 1525 1525 1526 1526 1526 1526 1526 1525 1525 1526 1527 1527 1529 1530 1531 1533 1533 1534 1535 1536
1507 1500 1499 1499 1501 1504 1504 1506 1507 1506 1508 1512 1512 1512 1516 1519 1519 1520 1521 1521 1522 1523 1524 1524 1525 1526 1526 1527 1526 1526 1527 1527 1528 1528 1527 1527 1527 1527 1527 1528 1529 1530 1531 1532 1533 1533 1534 1535 1537
1507 1501 1500 1500 1502 1503 1504 1506 1508 1510 1511 1513 1514 1515 1517 1519 1520 1521 1522 1522 1523 1524 1525 1526 1527 1527 1528 1529 1528 1529 1529 1529 1529 1530 1529 1529 1529 1530 1530 1530 1531 1531 1532 1532 1533 1534 1535 1536 1537
1505 1501 1502 1501 1501 1502 1505 1506 1508 1509 1510 1513 1515 1517 1518 1519 1520 1521 1522 1523 1524 1525 1526 1526 1527 1528 1529 1530 1530 1531 1531 1531 1531 1531 1531 1531 1531 1531 1532 1532 1532 1533 1533 1534 1535 1535 1536 1537 1539
1504 1503 1502 1503 1504 1505 1505 1507 1508 1507 1508 1512 1515 1517 1519 1520 1521 1521 1522 1523 1525 1526 1527 1527 1528 1529 1530 1531 1532 1532 1532 1532 1532 1532 1532 1533 1533 1533 1534 1534 1535 1535 1535 1536 1536 1537 1538 1539 1539
1504 1503 1504 1505 1506 1506 1506 1507 1508 1508 1511 1513 1515 1517 1519 1520 1521 1521 1523 1524 1525 1526 1527 1528 1528 1529 1530 1531 1532 1533 1533 1533 1533 1533 1534 1534 1535 1535 1535 1535 1536 1536 1536 1537 1537 1537 1538 1538 1538
1503 1504 1505 1505 1505 1506 1507 1507 1508 1510 1513 1515 1516 1518 1519 1520 1521 1522 1523 1525 1526 1527 1528 1529 1529 1529 1530 1531 1532 1534 1534 1535 1535 1534 1535 1535 1536 1536 1536 1536 1536 1537 1537 1538 1537 1538 1538 1538 1538
1504 1504 1504 1504 1505 1506 1506 1507 1508 1511 1513 1515 1516 1518 1519 1520 1522 1523 1524 1525 1526 1527 1528 1529 1529 1530 1530 1531 1532 1533 1534 1535 1536 1535 1535 1536 1536 1536 1537 1537 1537 1537 1538 1538 1538 1538 1538 1538 1538
1504 1503 1502 1502 1503 1504 1505 1506 1507 1511 1513 1514 1516 1518 1519 1521 1522 1523 1524 1525 1527 1528 1528 1529 1530 1530 1531 1532 1533 1534 1535 1536 1536 1536 1536 1536 1537 1537 1537 1537 1537 1538 1538 1538 1538 1538 1538 1538 1538
1500 1500 1501 1500 1501 1503 1504 1507 1507 1510 1512 1513 1515 1517 1519 1521 1522 1523 1524 1525 1527 1527 1528 1529 1530 1530 1530 1531 1532 1534 1535 1536 1536 1536 1536 1536 1537 1537 1537 1538 1538 1538 1538 1538 1538 1538 1538 1538 1538
1498 1500 1501 1500 1500 1500 1501 1503 1505 1509 1510 1512 1514 1516 1518 1520 1522 1523 1524 1525 1526 1527 1528 1528 1529 1529 1530 1530 1531 1533 1534 1535 1536 1536 1537 1536 1537 1537 1537 1537 1537 1538 1538 1538 1538 1538 1538 1538 1538
1501 1499 1499 1500 1498 1498 1499 1500 1502 1507 1508 1509 1512 1514 1517 1518 1520 1522 1523 1525 1526 1526 1527 1528 1529 1529 1529 1530 1531 1533 1534 1535 1536 1536 1536 1536 1537 1537 1537 1538 1537 1538 1538 1538 1537 1537 1537 1537 1537
1495 1497 1499 1497 1496 1498 1499 1500 1500 1504 1505 1507 1510 1512 1514 1517 1519 1521 1522 1524 1525 1525 1526 1527 1528 1529 1529 1530 1531 1532 1534 1535 1535 1536 1536 1536 1536 1537 1537 1537 1537 1537 1537 1537 1537 1537 1537 1537 1536
1496 1498 1498 1496 1496 1498 1498 1499 1498 1500 1503 1505 1507 1510 1512 1515 1517 1519 1521 1522 1523 1524 1525 1526 1527 1528 1529 1530 1531 1532 1533 1534 1535 1535 1535 1536 1536 1536 1537 1536 1537 1537 1536 1536 1536 1536 1536 1537 1536
1495 1496 1496 1499 1497 1496 1498 1499 1496 1497 1501 1503 1505 1507 1509 1512 1514 1517 1519 1520 1522 1523 1524 1526 1526 1527 1528 1530 1531 1532 1533 1534 1534 1535 1535 1535 1535 1536 1536 1535 1536 1535 1536 1536 1535 1535 1535 1535 1535
1497 1491 1494 1497 1500 1498 1499 1505 1495 1493 1496 1499 1502 1504 1507 1510 1512 1515 1517 1519 1520 1522 1523 1524 1526 1527 1528 1529 1531 1532 1532 1533 1534 1534 1534 1534 1534 1534 1534 1534 1534 1534 1535 1534 1534 1535 1534 1534 1534
1492 1491 1493 1494 1496 1498 1495 1500 1493 1489 1494 1494 1498 1501 1504 1507 1510 1513 1515 1517 1519 1520 1522 1523 1524 1526 1527 1528 1529 1530 1532 1532 1533 1533 1533 1533 1533 1533 1533 1533 1533 1533 1533 1533 1533 1533 1533 1533 1533
1491 1493 1494 1493 1492 1506 1496 1500 1498 1487 1490 1490 1494 1498 1502 1505 1508 1511 1513 1515 1517 1519 1521 1522 1523 1524 1526 1527 1528 1529 1530 1531 1531 1532 1532 1532 1532 1532 1532 1532 1532 1532 1532 1531 1531 1531 1531 1531 1531
1491 1496 1505 1508 1506 1502 1490 1496 1493 1485 1487 1489 1492 1496 1499 1503 1506 1508 1511 1513 1515 1517 1519 1521 1522 1523 1524 1526 1527 1528 1529 1529 1530 1530 1531 1531 1532 1532 1531 1531 1531 1531 1530 1530 1530 1529 1529 1529 1529
1487 1488 1504 1514 1508 1495 1493 1495 1487 1484 1487 1490 1492 1494 1498 1501 1503 1506 1509 1511 1513 1515 1517 1519 1520 1521 1523 1524 1525 1526 1527 1528 1529 1529 1530 1530 1530 1530 1530 1529 1529 1529 1529 1529 1528 1528 1528 1527 1527
1486 1485 1479 1488 1491 1497 1491 1487 1484 1484 1486 1487 1490 1493 1496 1499 1502 1505 1507 1510 1512 1513 1515 1517 1518 1520 1521 1523 1524 1525 1525 1526 1527 1528 1528 1529 1528 1529 1528 1528 1528 1527 1527 1527 1526 1526 1525 1525 1525
1482 1479 1484 1489 1505 1506 1496 1491 1487 1484 1484 1486 1488 1491 1494 1498 1500 1503 1505 1508 1510 1512 1514 1516 1517 1518 1520 1521 1522 1524 1524 1525 1525 1526 1526 1527 1527 1526 1527 1526 1526 1526 1525 1525 1524 1524 1523 1523 1522
1485 1485 1484 1483 1485 1498 1502 1492 1475 1480 1482 1485 1488 1491 1494 1496 1499 1501 1504 1506 1509 1511 1512 1514 1515 1517 1518 1520 1521 1522 1522 1523 1524 1524 1524 1525 1525 1525 1525 1524 1524 1524 1524 1523 1522 1522 1521 1521 1520
1477 1478 1481 1490 1492 1488 1490 1489 1475 1479 1481 1485 1488 1492 1494 1496 1498 1500 1503 1505 1507 1509 1511 1512 1514 1515 1517 1518 1519 1519 1520 1521 1522 1522 1523 1523 1523 1523 1523 1523 1522 1522 1522 1521 1521 1520 1520 1519 1518